#timestamp,LO_Frequency,Hit,StdDev 
1622872815.4,286047004.4,N
1622872835.3,286047004.2,N
1622872855.1,286047001.3,N
1622872856.0,286047001.3,N
1622872875.8,286047002.5,N
1622872895.7,286047003.9,N
1622872915.5,286047002.2,N
1622872935.3,286047002.3,N
1622872955.2,286047001.6,N
1622872975.0,286047001.9,N
1622872975.9,286047001.9,N
1622872995.8,286047000.2,N
1622873015.6,286046999.8,N
1622873035.4,286047002.2,N
1622873055.3,286046999.8,N
1622873075.1,286047000.8,N
1622873095.9,286047002.6,N
1622873115.7,286047001.5,N
1622873135.5,286047002.3,N
1622873155.4,286047000.9,N
1622873175.2,286047002.3,N
1622873195.0,286047002.5,N
1622873195.9,286047002.5,N
1622873215.8,286047002.8,N
1622873235.6,286047001.7,N
1622873255.5,286047001.4,N
1622873275.3,286047000.4,N
1622873295.1,286046996.6,N
1622873315.9,286046997.2,N
1622873335.7,286046999.5,N
1622873355.6,286046998.5,N
1622873375.4,286046999.5,N
1622873395.2,286047001.1,N
1622873415.1,286046999.2,N
1622873416.0,286046999.2,N
1622873435.8,286046996.5,N
1622873455.7,286046997.6,N
1622873475.5,286046996.6,N
1622873495.3,286046998.9,N
1622873515.2,286047001.2,N
1622873535.0,286047002.4,N
1622873535.9,286047002.4,N
1622873555.8,286047001.9,N
1622873575.6,286047001.0,N
1622873595.4,286047001.1,N
1622873615.3,286046998.4,N
1622873635.1,286047000.6,N
1622873655.8,286046998.9,N
1622873675.7,286046998.1,N
1622873695.5,286047002.4,N
1622873715.4,286046998.8,N
1622873735.2,286047000.3,N
1622873755.0,286046999.8,N
1622873755.9,286046999.8,N
1622873775.8,286047000.4,N
1622873795.6,286046998.6,N
1622873815.5,286047000.8,N
1622873835.3,286047000.4,N
1622873855.1,286047000.4,N
1622873875.9,286046998.6,N
1622873895.7,286047001.1,N
1622873915.5,286046998.3,N
1622873935.4,286046999.0,N
1622873955.2,286046995.2,Y
1622873975.1,286046999.4,P
1622873976.0,286046999.4,P
1622873995.8,286047002.7,P
1622874015.6,286047002.3,N
1622874035.5,286047002.2,N
1622874055.3,286047003.9,N
1622874075.1,286047003.9,N
1622874095.9,286047001.4,N
1622874115.7,286047002.8,N
1622874135.6,286047000.1,N
1622874155.4,286046999.4,N
1622874175.2,286046999.5,N
1622874195.1,286046999.4,N
1622874196.0,286046999.4,N
1622874215.8,286046999.3,N
1622874235.7,286046999.4,N
1622874255.5,286046998.5,N
1622874275.3,286047001.1,N
1622874295.2,286046998.2,N
1622874315.0,286046998.4,N
1622874315.9,286046998.4,N
1622874335.8,286046998.4,N
1622874355.6,286046998.1,N
1622874375.4,286046999.3,N
1622874395.3,286046998.9,N
1622874415.1,286046998.2,N
1622874435.8,286046998.4,N
1622874455.7,286046996.9,N
1622874475.5,286046999.5,N
1622874495.4,286046997.0,N
1622874515.2,286046996.9,N
1622874535.0,286046999.0,N
1622874535.9,286046999.0,N
1622874555.8,286046999.5,N
1622874575.6,286047000.3,N
1622874595.4,286047003.1,N
1622874615.3,286047001.7,N
1622874635.1,286046998.2,N
1622874655.9,286046999.2,N
1622874675.7,286046998.0,N
1622874695.5,286046997.9,N
1622874715.4,286046997.7,N
1622874735.2,286046996.1,N
1622874755.0,286046995.9,N
1622874755.9,286046995.9,N
1622874775.8,286046996.4,N
1622874795.6,286046994.0,Y
1622874815.5,286046994.9,P
1622874835.3,286046993.4,P
1622874855.1,286046993.4,P
1622874875.9,286046993.4,Y
1622874895.7,286047001.1,P
1622874915.6,286046999.1,N
1622874935.4,286046998.9,N
1622874955.2,286046999.2,N
1622874975.1,286046996.6,N
1622874976.0,286046996.6,N
1622874995.8,286046997.7,N
1622875015.6,286046997.1,N
1622875035.5,286046996.7,N
1622875055.3,286046998.0,N
1622875075.2,286046995.6,N
1622875095.9,286046996.1,N
1622875115.7,286046993.6,Y
1622875135.6,286046997.3,P
1622875155.4,286046999.4,P
1622875175.2,286046996.6,P
1622875195.1,286046996.6,Y
1622875196.0,286046996.6,P
1622875215.8,286046998.6,N
1622875235.7,286046999.0,N
1622875255.5,286046998.7,N
1622875275.3,286046998.7,N
1622875295.2,286046997.0,Y
1622875315.0,286047000.9,P
1622875315.9,286047000.9,N
1622875335.8,286047000.9,N
1622875355.6,286047000.5,N
1622875375.4,286047001.2,N
1622875395.3,286046998.1,N
1622875415.1,286046998.5,N
1622875435.8,286046999.5,N
1622875455.7,286046998.7,N
1622875475.5,286046998.8,N
1622875495.4,286046998.9,N
1622875515.2,286046999.4,N
1622875535.0,286046999.4,N
1622875535.9,286046999.4,N
1622875555.8,286046997.0,N
1622875575.6,286046998.7,N
1622875595.5,286046999.3,N
1622875615.3,286046999.4,N
1622875635.1,286046997.2,N
1622875655.9,286046996.8,N
1622875675.7,286046999.1,N
1622875695.5,286046999.0,N
1622875715.4,286046999.1,N
1622875735.2,286046999.4,N
1622875755.1,286047000.4,N
1622875756.0,286047000.4,N
1622875775.8,286047001.0,N
1622875795.6,286046998.5,N
1622875815.5,286046999.4,N
1622875835.3,286046999.2,N
1622875855.2,286046999.5,N
1622875875.9,286047000.1,N
1622875895.7,286047000.4,N
1622875915.6,286046999.8,N
1622875935.4,286046999.8,N
1622875955.3,286047001.3,N
1622875975.1,286047002.8,N
1622875995.8,286047002.8,N
1622876015.7,286047002.5,N
1622876035.5,286047001.3,N
1622876055.4,286047001.3,N
1622876075.2,286047002.0,N
1622876095.0,286047002.5,N
1622876095.9,286047002.5,N
1622876115.8,286047001.7,N
1622876135.6,286047004.2,N
1622876155.4,286047002.1,N
1622876175.3,286047002.6,N
1622876195.1,286046999.7,N
1622876215.9,286047000.3,N
1622876235.7,286047002.8,N
1622876255.5,286047004.1,N
1622876275.4,286047003.0,N
1622876295.2,286047003.0,N
1622876315.1,286047005.9,Y
1622876316.0,286047005.9,P
1622876335.8,286047004.4,N
1622876355.6,286047002.9,N
1622876375.5,286047003.1,N
1622876395.3,286047004.2,N
